User: anonymous   Login
Location: Chervonnoye
(48.6000°N, 34.4000°E)
Time: 03:55:16
(UTC+00:00)
Language:

DOVE 4 - Orbit

View from above orbital plane
View from above orbital plane
View from above satellite
View from above satellite

Ground track
Ground track

The orbit data is extracted from the following two-line orbital elements,

1 39430U 13066Q   21339.76838189  .00000683  00000-0  13198-3 0  9995
2 39430  97.8136 252.9925 0149204 295.6075  62.9780 14.59765699428033
Epoch (UTC): 05 December 2021 18:26:28
Eccentricity: 0.0149204
inclination: 97.8136°
perigee height: 588 km
apogee height: 799 km
right ascension of ascending node: 252.9925°
argument of perigee: 295.6075°
revolutions per day: 14.59765699
mean anomaly at epoch: 62.9780°
orbit number at epoch: 42803

The dashed part of the orbit path shows where the satellite is in the earth's shadow,  

DLR